Regional Weather Roundup
Issued by NWS

Home | Current Version | Previous Version | Graphics & Text | Print | Product List | Glossary On
Versions: 1 2 3 4 5 6 7 8 9 10 11 12 13 14 15 16 17 18 19 20 21 22 23 24 25 26 27 28 29 30 31 32 33 34 35 36 37 38 39 40 41 42 43 44 45 46 47 48 49 50
512
ASUS44 KJAN 211210
RWRMS

MISSISSIPPI HOURLY WEATHER ROUNDUP
NATIONAL WEATHER SERVICE JACKSON MS
700 AM CDT MON JUL 21 2014

NOTE: "FAIR: INDICATES FEW OR NO CLOUDS BELOW 12,000 FEET WITH NO
SIGNIFICANT WEATHER AND/OR OBSTRUCTIONS TO VISIBILITY.

MSZ001>002-007>008-010>013-018>021-025>028-034>036-211300-
NORTHWEST MISSISSIPPI

CITY           SKY/WX    TMP DP  RH WIND       PRES   REMARKS
CLARKSDALE     FAIR      66  66 100 CALM      30.07R
CLEVELAND      FAIR      66  66 100 CALM      30.05R FOG
GREENWOOD      PTCLDY    66  65  96 CALM      30.05S
6HR MIN TEMP:  63; 6HR MAX TEMP:  68;

GREENVILLE     MOCLDY    68  66  94 N3        30.05R
6HR MIN TEMP:  65; 6HR MAX TEMP:  67;

GRENADA        PTSUNNY   64  64 100 CALM      30.07R
OLIVE BRANCH   SUNNY     64  64 100 CALM      30.09R HAZE
OXFORD         FAIR      64  63  94 CALM      30.09R FOG
TUNICA         FOG       66  64  94 CALM      30.08R VSB 1
$$

MSZ003>006-009-014>017-022>024-029>033-037>039-211300-
NORTHEAST MISSISSIPPI

CITY           SKY/WX    TMP DP  RH WIND       PRES   REMARKS
BELMONT        FAIR      65  65  99 CALM      30.07S FOG
COLUMBUS AFB   SUNNY     68  68 100 CALM      30.06R
6HR MIN TEMP:  67; 6HR MAX TEMP:  70;

CORINTH        FAIR      64  63  94 NW3       30.08R FOG
GOLDN TRIANGLE SUNNY     68  64  88 CALM      30.06R
STARKVILLE     FAIR      64  64 100 CALM      30.06R FOG
TUPELO         SUNNY     68  66  93 CALM      30.07R FOG
6HR MIN TEMP:  66; 6HR MAX TEMP:  71;

$$

MSZ040-058-211300-
CENTRAL MISSISSIPPI

CITY           SKY/WX    TMP DP  RH WIND       PRES   REMARKS
JACKSON INTL   MOCLDY    71  69  93 CALM      30.04R
6HR MIN TEMP:  67; 6HR MAX TEMP:  71;

JACKSON HAWKNS CLOUDY    71  67  87 MISG      30.05R
6HR MIN TEMP:  70; 6HR MAX TEMP:  72;

MERIDIAN KEY   CLOUDY    70  68  93 CALM      30.04R
6HR MIN TEMP:  68; 6HR MAX TEMP:  72; 6HR PCP:  0.01;

MERIDIAN NAS   CLOUDY    70  68  93 NW3       30.05R
6HR MIN TEMP:  68; 6HR MAX TEMP:  72;

RAYMOND        PTSUNNY   68  64  88 CALM      30.05R FOG
VICKSBURG      CLOUDY    71  69  93 NW3       30.05R
6HR MIN TEMP:  65; 6HR MAX TEMP:  71; 6HR PCP: TRACE;

$$

MSZ059>079-211300-
SOUTH MISSISSIPPI

CITY           SKY/WX    TMP DP  RH WIND       PRES   REMARKS
BROOKHAVEN     PTSUNNY   68  68 100 CALM      30.06R FOG
COLUMBIA       FOG       68  68 100 CALM      30.03R VSB 1
HATTIESBURG    MOCLDY    73  71  93 CALM      30.04R
6HR MIN TEMP:  72; 6HR MAX TEMP:  75;

MCCOMB         CLEAR     71  68  90 N3        30.04R
6HR MIN TEMP:  69; 6HR MAX TEMP:  74;

NATCHEZ        PTCLDY    68  66  94 CALM      30.05R
6HR MIN TEMP:  68; 6HR MAX TEMP:  70;

PINE BELT      CLEAR     70  66  88 CALM      30.05R
6HR MIN TEMP:  70; 6HR MAX TEMP:  73;

$$

MSZ080>082-211300-
COASTAL MISSISSIPPI

CITY           SKY/WX    TMP DP  RH WIND       PRES   REMARKS
BAY ST LOUIS   FOG      N/A N/A N/A CALM      30.02  VSB 1
BILOXI         CLEAR     76  73  89 VRB3      30.01S
6HR MIN TEMP:  76; 6HR MAX TEMP:  78;

PASCAGOULA     CLOUDY    76  75  97 CALM      30.01R
6HR MIN TEMP:  74; 6HR MAX TEMP:  76;

GULFPORT       PTCLDY    78  74  87 CALM      30.00S
6HR MIN TEMP:  77; 6HR MAX TEMP:  79;

$$



USA.gov is the U.S. government's official web portal to all federal, state and local government web resources and services.